ANSMANN ENERGY - Ihr professioneller Partner für Lade -und Lichttechnik, Netzgeräte und technisches Zubehör

FL7200AC

FL7200AC
80 W ANSMANN Luminary LED Strahler mit integrierten 500 cm Kabel und Schuko-Stecker für den professionellen Einsatz, robust und sehr hell
Artikelnummer 1600-0404
EAN 4013674172665
Marke ANSMANN
Abmessungen 360 × 353 × 91 mm (Produkt ohne Verpackung)
Produktgewicht 3414 g (Produkt ohne Verpackung)
Lieferumfang FL7200AC, Bedienungsanleitung
Garantie 10 Jahre
ODER
Beschreibung

Deine Projekte, deine Leidenschaft, deine Leuchte 

ANSMANN steht für Qualität und Zuverlässigkeit! Wir haben es uns zum Ziel gesetzt, hochwertige Qualitätsprodukte für Profis und Hobby-Handwerker anzubieten. Unser FL7200AC ist ein professioneller Strahler mit SMD-LED-Technologie. Die zuverlässige ANSMANN Luminary Leuchte integriert sich mühelos in den anspruchsvollen Alltag für Arbeiten im und rund ums Haus, z.B. in Werkstätten, Baustellen, Industrie, Haus, Garten, Hof oder Garage.

Leistungsstarke Leuchtkraft

Durch den Einsatz der leistungsstarken SMD-LED-Technologie erzeugt die Leuchte ein intensives helles Licht. Die Leuchte kommt dabei auf eine Helligkeit bis zu 7.200 Lumen. Dank des breiten Abstrahlwinkels wird das helle Licht gleichmäßig verteilt, damit kleine Details ebenso wie große Flächen homogen ausgeleuchtet werden. Das Licht der LEDs hat eine Farbtemperatur von ca. 5000K, welche die Augen nicht zu sehr belastet. Das bedeutet ein angenehm natürliches, weißes Licht, das nicht ermüdet und ein entspanntes Arbeiten ermöglicht.

Robust, stoßfest und spritzwassergeschützt

Das robuste und stoßfeste Gehäuse ist besonders widerstandsfähig gegen mechanische Beanspruchung. Dank IP65 ist die Leuchte vollständig gegen Fremdkörper (Staub), Berührungen und Strahlwasser aus einem beliebigen Winkel geschützt. Somit können Sie sich bei optimaler Ausleuchtung im Innen- und Außenbereich voll auf Ihre Arbeit konzentrieren.

Starke technische Werte

Betrieben wird die FL7200AC mithilfe des integrierten, 500 cm langen Kabels. Das H07RN-F Gummikabel ist flexibel und für den Einsatz im Freien sowie auf der Baustelle bestens geeignet. Aufgrund seiner Beschaffenheit hält es mittleren mechanischen Beanspruchungen stand und kann ebenfalls auf feuchten oder nassen Boden eingesetzt werden. Ob mobil oder zu Hause, mit dem FL7200AC haben Sie immer den passenden Strahler, der Licht ins Dunkel bringt!

Sofort einsatzbereit

Die SMD-LEDs benötigen unter 1 Sekunde Anlaufzeit, um die volle Leistung bereitzustellen. Somit liefert die Leuchte sofort die volle Leistung.

Technische Details
Eingangsspannung 230V AC
Downloads

Auswahl
Dateiname Dateityp Dateigröße Letzte Änderung
1600-0404_FL7200AC_bu_02.jpg jpg 716 KB 04.02.2021
1600-0404_FL7200AC_bu_01.jpg jpg 728 KB 04.02.2021
1600-0404_FL7200AC_bu_03.jpg jpg 354 KB 04.02.2021
1600-0404_FL7200AC_bu_04.jpg jpg 544 KB 04.02.2021
1600-0404_FL7200AC_bu_05.jpg jpg 553 KB 04.02.2021
1600-0404_FL7200AC_bu_06.jpg jpg 689 KB 04.02.2021
1600-0404_FL7200AC_use_01.jpg jpg 2,528 KB 04.02.2021
1600-0277-0278-0279_Portable-Floodlight_Manual.pdf pdf 1,595 KB 04.02.2021
1600-0404_FL7200AC_PIB_DE.pdf pdf 907 KB 15.09.2021
1600-0404_FL7200AC_PIB_EN.pdf pdf 899 KB 15.09.2021
1600-0404_FL7200AC_PIB_FR.pdf pdf 909 KB 15.09.2021
1600-0404_FL7200AC_PIB_NL.pdf pdf 908 KB 15.09.2021
1600-0404_FL7200AC_PIB_SV.pdf pdf 908 KB 15.09.2021
1600-0404_FL7200AC_PIB_DK.pdf pdf 907 KB 15.09.2021
1600-0404_FL7200AC_PIB_FI.pdf pdf 906 KB 15.09.2021
1600-0404_FL7200AC_PIB_NO.pdf pdf 907 KB 15.09.2021
1600-0404_FL7200AC_DS_DE.pdf pdf 1,402 KB 24.03.2021
1600-0404_FL7200AC_DS_EN.pdf pdf 1,402 KB 24.03.2021
1600-0404_FL7200AC_cb_01.jpg jpg 1,331 KB 24.03.2021
1600-0404_FL7200AC_cb_02.jpg jpg 1,236 KB 24.03.2021
1600-0404_FL7200AC_bu_07.jpg jpg 716 KB 07.06.2021
1600-0404_FL7200AC_use_02.jpg jpg 1,416 KB 21.07.2021
1600-0404_FL7200AC_use_03.jpg jpg 1,014 KB 21.07.2021
1600-0404_FL7200AC_use_04.jpg jpg 3,270 KB 21.07.2021
1600-0404_FL7200AC_use_05.jpg jpg 2,438 KB 21.07.2021
1600-0404_FL7200AC_use_06.jpg jpg 1,720 KB 21.07.2021
1600-0404_FL7200AC_use_07.jpg jpg 2,137 KB 21.07.2021
1600-0315_1600-0402_1600-0403_1600-0404_FL-Series_use_14.jpg jpg 2,438 KB 03.08.2021
1600-0315_1600-0402_1600-0403_1600-0404_FL-Series_use_13.jpg jpg 1,720 KB 03.08.2021
1600-0402_1600-0403_1600-0404_FL-Series_use_12.jpg jpg 2,137 KB 03.08.2021
1600-0315_1600-0402_1600-0403_1600-0404_FL-Series_use_11.jpg jpg 3,270 KB 03.08.2021
1600-0402_1600-0403_1600-0404_FL-Series_use_16.jpg jpg 1,014 KB 03.08.2021
1600-0402_1600-0403_1600-0404_FL-Series_use_15.jpg jpg 1,416 KB 03.08.2021